Location: Newark
(25.6108°S, 54.5803°W)
Time: 12:24:02
(UTC+00:00)

Courier 1B Rocket - Pass Details

Date: 05 November 2020
Orbit: 920 x 1202 km, 28.2° (Epoch: 01 December)

Event Time Altitude Azimuth Distance (km) Brightness Sun altitude
Rises 12:44:17 0° 261° (W) 3,881 7.8 52.0°
Reaches altitude 10° 12:47:20 10° 269° (W) 2,875 7.2 52.7°
Maximum altitude 12:53:35 36° 332° (NNW) 1,542 6.4 54.1°
Drops below altitude 10° 12:59:27 10° 37° (NE) 2,689 7.8 55.4°
Sets 13:02:14 0° 45° (NE) 3,600 8.4 56.0°
